This demonstration page uses our WeatherBlox Daily Observations layout. Learn more.

Left ArrowRight Arrow

36.17497, -115.13722

Hourly Observations for May 7, 2017

Temp ( °F °C ) Dew Point ( °F °C ) Humidity (%) Winds ( mph kmh ) Pressure ( in mb ) Visibility ( mi km ) Precip ( " mm )
12:53 am 00:53 Mostly Clear 64 17.8 43 6.1 46 46 S 9 15 29.60 1002 10 16 0.00 0.00
1:53 am 01:53 Cloudy 64 17.8 42 5.6 45 45 S 10 17 29.62 1003 10 16 0.00 0.00
2:53 am 02:53 Cloudy 63 17.2 41 5 45 45 S 9 15 29.63 1003 10 16 0.00 0.00
3:53 am 03:53 Mostly Cloudy 60 15.6 34 1.1 38 38 SSE 13 20 29.67 1005 10 16 0.00 0.00
4:53 am 04:53 Mostly Cloudy 58 14.4 33 0.6 39 39 S 12 19 29.70 1006 10 16 0.00 0.00
5:53 am 05:53 Sunny 56 13.3 30 -1.1 37 37 SSW 12 19 29.74 1007 10 16 0.00 0.00
6:53 am 06:53 Sunny 56 13.3 29 -1.7 36 36 S 7 11 29.77 1008 10 16 0.00 0.00
7:53 am 07:53 Mostly Cloudy 57 13.9 28 -2.2 33 33 SE 8 13 29.80 1009 10 16 0.00 0.00
8:53 am 08:53 Partly Cloudy 57 13.9 26 -3.3 30 30 ESE 6 9 29.83 1010 10 16 0.00 0.00
9:53 am 09:53 Cloudy 57 13.9 27 -2.8 32 32 SSE 7 11 29.83 1010 10 16 0.00 0.00
10:53 am 10:53 Mostly Cloudy 59 15 26 -3.3 28 28 E 8 13 29.85 1011 10 16 0.00 0.00
11:53 am 11:53 Mostly Cloudy 60 15.6 26 -3.3 27 27 ESE 12 19 29.86 1011 10 16 0.00 0.00
12:53 pm 12:53 Cloudy 59 15 26 -3.3 28 28 ESE 14 22 29.87 1012 10 16 0.00 0.00
1:53 pm 13:53 Cloudy with Light Rain 55 12.8 36 2.2 49 49 SW 12 19 29.91 1013 10 16 0.00 0.03
2:53 pm 14:53 Cloudy 53 11.7 38 3.3 57 57 SW 16 26 29.92 1013 10 16 0.00 0.03
3:53 pm 15:53 Mostly Cloudy 57 13.9 33 0.6 41 41 NW 8 13 29.89 1012 10 16 0.00 0.00
4:53 pm 16:53 Partly Cloudy 59 15 27 -2.8 29 29 Calm 29.87 1011 10 16 0.00 0.00
5:53 pm 17:53 Sunny 61 16.1 25 -3.9 25 25 E 5 7 29.86 1011 10 16 0.00 0.00
6:53 pm 18:53 Sunny 60 15.6 23 -5 24 24 WSW 3 6 29.88 1012 10 16 0.00 0.00
7:10 pm 19:10 Sunny with Thunderstorms 61 16 23 -5 23 23 S 3 6 29.80 1009 10 16 0.00 0.00
7:26 pm 19:26 Sunny 60 15.6 23 -5 24 24 S 3 6 29.83 1010 10 16 0.00 0.00
7:53 pm 19:53 Clear 60 15.6 24 -4.4 25 25 WSW 3 6 29.89 1012 10 16 0.00 0.00
8:53 pm 20:53 Clear 60 15.6 25 -3.9 26 26 W 5 7 29.91 1013 10 16 0.00 0.00
9:53 pm 21:53 Clear 58 14.4 28 -2.2 32 32 Calm 29.92 1013 10 16 0.00 0.00
10:53 pm 22:53 Clear 57 13.9 32 0 39 39 WSW 5 7 29.92 1013 10 16 0.00 0.00
11:53 pm 23:53 Clear 56 13.3 30 -1.1 37 37 Calm 29.93 1014 10 16 0.00 0.00

Powered by AerisWeather